Tracking 26951 objects as of 3-Feb-2023
HD Live streaming from Space Station
objects crossing your sky now

ONEWEB-0303

Track ONEWEB-0303 now!
10-day predictions
ONEWEB-0303 is classified as:


NORAD ID: 49187
Int'l Code: 2021-083B
Perigee: 1,195.5 km
Apogee: 1,198.2 km
Inclination: 87.9 °
Period: 109.2 minutes
Semi major axis: 7567 km
RCS: Unknown
Launch date: September 14, 2021
Source: United Kingdom (UK)
Launch site: TYURATAM MISSILE AND SPACE COMPLEX (TTMTR)
Your satellite tracking list
Your tracking list is empty




NASA's NSSDC Master Catalog

Two Line Element Set (TLE):
1 49187U 21083B   23034.04279717  .00000048  00000-0  90269-4 0  9994
2 49187  87.9192 219.8716 0001799 101.5975 258.5359 13.18686571 67854
Source of the keplerian elements: AFSPC